EW1423 Weather Reports


time (UTC)temp
C
wind
direction
speed
KPH
gust
KPH
rain 1hr
cm
rain 24hr
cm
rain mn
cm
humidity
%
barometer
mb
20260504050303 9 74 0.0 0.0 0.00 0.00 0.00 89 1015.0
20260504045804 9 74 0.0 0.0 0.00 0.00 0.00 89 1015.0
20260504045304 8 74 0.0 0.0 0.00 0.00 0.00 89 1015.0
20260504044804 8 74 0.0 0.0 0.00 0.00 0.00 89 1015.0
20260504044304 8 74 0.0 0.0 0.00 0.00 0.00 89 1015.0
20260504043803 8 74 0.0 0.0 0.00 0.00 0.00 89 1015.0
20260504043303 8 74 0.0 0.0 0.00 0.00 0.00 90 1015.0
20260504042803 8 74 0.0 0.0 0.00 0.00 0.00 89 1015.0
20260504042304 8 74 0.0 0.0 0.00 0.00 0.00 89 1015.0
20260504041803 9 74 0.0 0.0 0.00 0.00 0.00 89 1015.0
20260504041304 9 74 0.0 0.0 0.00 0.00 0.00 88 1015.0
20260504040803 9 74 0.0 0.0 0.00 0.00 0.00 88 1015.0
20260504035803 9 74 0.0 0.0 0.00 0.00 0.00 87 1015.0
20260504035305 10 74 0.0 0.0 0.00 0.00 0.00 86 1015.0
20260504034804 10 74 0.0 0.0 0.00 0.00 0.00 85 1015.0
20260504033805 10 74 0.0 0.0 0.00 0.00 0.00 85 1015.0
20260504033303 10 74 0.0 0.0 0.00 0.00 0.00 85 1015.0
20260504032803 10 74 0.0 0.0 0.00 0.00 0.00 84 1015.0
20260504032304 10 74 0.0 0.0 0.00 0.00 0.00 84 1015.0
20260504031804 10 74 0.0 0.0 0.00 0.00 0.00 83 1015.0
20260504030803 11 74 0.0 0.0 0.00 0.00 0.00 83 1015.0
20260504030304 11 74 0.0 0.0 0.00 0.00 0.00 83 1015.0
20260504025804 11 74 0.0 0.0 0.00 0.00 0.00 83 1015.0
20260504025304 11 74 0.0 0.0 0.00 0.00 0.00 82 1015.0
20260504024303 11 74 0.0 0.0 0.00 0.00 0.00 81 1015.0
20260504023303 11 74 0.0 0.0 0.00 0.00 0.00 82 1015.0
20260504022803 11 74 0.0 0.0 0.00 0.00 0.00 81 1015.0
20260504022305 11 74 0.0 0.0 0.00 0.00 0.00 81 1015.0
20260504021804 11 74 0.0 0.0 0.00 0.00 0.00 80 1015.0
20260504020803 11 74 0.0 0.0 0.00 0.00 0.00 80 1015.0
20260504015804 11 74 0.0 0.0 0.00 0.00 0.00 81 1014.9
20260504015304 11 74 0.0 0.0 0.00 0.00 0.00 79 1014.9
20260504014303 12 74 0.0 0.0 0.00 0.00 0.00 77 1014.8
20260504013803 12 74 0.0 0.0 0.00 0.00 0.00 76 1014.8
20260504013303 13 74 0.0 1.6 0.00 0.00 0.00 76 1014.8
20260504012804 13 74 0.0 0.0 0.00 0.00 0.00 76 1014.9
20260504012304 13 74 0.0 0.0 0.00 0.00 0.00 76 1014.8
20260504011803 13 74 0.0 0.0 0.00 0.00 0.00 75 1014.8
20260504010803 13 74 0.0 0.0 0.00 0.00 0.00 75 1014.8
20260504010318 13 74 0.0 0.0 0.00 0.00 0.00 75 1014.8
20260504005804 13 74 0.0 0.0 0.00 0.00 0.00 75 1014.8
20260504005304 13 74 0.0 0.0 0.00 0.00 0.00 74 1014.8
20260504004804 13 74 0.0 0.0 0.00 0.00 0.00 74 1014.8
20260504004304 13 74 0.0 0.0 0.00 0.00 0.00 73 1014.8
20260504003803 13 74 0.0 0.0 0.00 0.00 0.00 73 1014.8
20260504003304 13 74 0.0 1.6 0.00 0.00 0.00 72 1014.8
20260504002304 14 74 0.0 0.0 0.00 0.00 0.00 71 1014.9
20260504001803 14 74 0.0 0.0 0.00 0.00 0.00 71 1015.0
20260504000803 14 74 0.0 0.0 0.00 0.00 0.00 71 1015.0
20260504000303 14 74 0.0 0.0 0.00 0.00 0.00 70 1015.0
20260503235804 14 74 0.0 0.0 0.00 0.00 0.00 70 1015.0
20260503235304 14 74 0.0 1.6 0.00 0.00 0.00 69 1015.3
20260503234803 14 74 0.0 1.6 0.00 0.00 0.00 69 1015.3
20260503234303 14 74 0.0 0.0 0.00 0.00 0.00 69 1015.3
20260503233804 14 74 0.0 0.0 0.00 0.00 0.00 68 1015.3
20260503233303 14 74 0.0 1.6 0.00 0.00 0.00 69 1015.3
20260503232803 14 74 0.0 0.0 0.00 0.00 0.00 67 1015.3
20260503230804 15 74 0.0 3.2 0.00 0.00 0.00 68 1015.3
20260503230304 15 74 0.0 1.6 0.00 0.00 0.00 67 1015.3
20260503225304 15 74 0.0 1.6 0.00 0.00 0.00 66 1015.3
20260503224804 15 74 0.0 3.2 0.00 0.00 0.00 65 1015.4
20260503224303 15 74 0.0 3.2 0.00 0.00 0.00 65 1015.4
20260503223804 15 346 0.0 3.2 0.00 0.00 0.00 64 1015.4
20260503223303 15 338 0.0 0.0 0.00 0.00 0.00 64 1015.4
20260503222804 15 338 0.0 1.6 0.00 0.00 0.00 63 1015.4
20260503221804 15 338 0.0 1.6 0.00 0.00 0.00 62 1015.3
20260503221304 15 338 0.0 0.0 0.00 0.00 0.00 62 1015.3
20260503220303 15 338 0.0 0.0 0.00 0.00 0.00 61 1015.3
20260503215804 15 338 0.0 0.0 0.00 0.00 0.00 63 1015.3
20260503215304 15 338 0.0 0.0 0.00 0.00 0.00 59 1015.3
20260503214803 15 338 0.0 0.0 0.00 0.00 0.00 60 1015.2
20260503214303 16 338 0.0 0.0 0.00 0.00 0.00 58 1015.2
20260503213803 16 338 0.0 0.0 0.00 0.00 0.00 57 1015.2
20260503213304 16 338 0.0 0.0 0.00 0.00 0.00 57 1015.2
20260503212804 16 338 0.0 0.0 0.00 0.00 0.00 56 1015.2
20260503212305 16 338 0.0 0.0 0.00 0.00 0.00 55 1015.2
20260503211803 16 338 0.0 1.6 0.00 0.00 0.00 54 1014.9
20260503211304 16 338 0.0 1.6 0.00 0.00 0.00 53 1014.9
20260503210803 16 338 0.0 3.2 0.00 0.00 0.00 53 1014.9
20260503210304 16 12 0.0 3.2 0.00 0.00 0.00 54 1014.9
20260503205803 16 350 0.0 3.2 0.00 0.00 0.00 54 1014.9
20260503204804 16 323 0.0 1.6 0.00 0.00 0.00 53 1014.6
20260503204303 16 323 0.0 1.6 0.00 0.00 0.00 53 1014.6
20260503203804 16 327 0.0 3.2 0.00 0.00 0.00 53 1014.6
20260503203304 16 327 0.0 3.2 0.00 0.00 0.00 53 1014.6
20260503202804 16 327 1.6 3.2 0.00 0.00 0.00 53 1014.6
20260503202304 16 328 1.6 4.8 0.00 0.00 0.00 53 1014.6
20260503201304 16 315 1.6 8.0 0.00 0.00 0.00 54 1014.6
20260503200304 17 344 0.0 1.6 0.00 0.00 0.00 52 1013.9
20260503195804 17 344 0.0 1.6 0.00 0.00 0.00 51 1013.9
20260503195304 17 344 0.0 1.6 0.00 0.00 0.00 52 1013.9
20260503194304 17 344 1.6 3.2 0.00 0.00 0.00 50 1013.9
20260503193803 17 344 1.6 3.2 0.00 0.00 0.00 49 1013.9
20260503193304 17 326 0.0 4.8 0.00 0.00 0.00 50 1013.9
20260503192305 18 17 0.0 4.8 0.00 0.00 0.00 49 1013.9
20260503191803 18 28 1.6 8.0 0.00 0.00 0.00 48 1013.9
20260503190804 18 313 1.6 8.0 0.00 0.00 0.00 48 1013.7
20260503185804 18 269 3.2 9.7 0.00 0.00 0.00 46 1013.7
20260503184804 18 301 3.2 11.3 0.00 0.00 0.00 46 1013.7
20260503184303 19 336 3.2 9.7 0.00 0.00 0.00 46 1013.7
20260503183803 19 314 3.2 11.3 0.00 0.00 0.00 46 1013.7
20260503183303 19 293 3.2 9.7 0.00 0.00 0.00 46 1013.7
20260503182804 19 306 3.2 8.0 0.00 0.00 0.00 46 1013.1
20260503182305 20 294 4.8 19.3 0.00 0.00 0.00 45 1013.1
20260503181803 20 312 4.8 19.3 0.00 0.00 0.00 45 1013.1
20260503180804 20 340 4.8 14.5 0.00 0.00 0.00 46 1013.1
20260503180303 21 295 3.2 12.9 0.00 0.00 0.00 51 1013.0
20260503175804 21 316 3.2 8.0 0.00 0.00 0.00 57 1012.8
20260503173804 21 19 1.6 4.8 0.00 0.00 0.00 56 1012.7
20260503173303 21 355 0.0 3.2 0.00 0.00 0.00 56 1012.7
20260503172805 21 266 0.0 1.6 0.00 0.00 0.00 55 1012.7
20260503171804 21 270 1.6 4.8 0.00 0.00 0.00 54 1012.7
20260503171303 22 295 1.6 4.8 0.00 0.00 0.00 54 1012.7
20260503170803 22 292 0.0 3.2 0.00 0.00 0.00 55 1012.7
20260503150304 25 213 0.0 3.2 0.00 0.00 0.00 40 1012.4
20260503140304 27 286 1.6 3.2 0.00 0.00 0.00 36 1012.9
20260503130303 26 115 0.0 3.2 0.00 0.00 0.00 35 1014.0
20260503110804 26 95 3.2 9.7 0.00 0.00 0.00 41 1014.6
20260503090303 22 296 1.6 8.0 0.00 0.00 0.00 50 1015.9
20260503081304 20 111 1.6 4.8 0.00 0.00 0.00 58 1016.2
20260503080803 20 157 1.6 4.8 0.00 0.00 0.00 57 1016.2
20260503080303 20 183 0.0 1.6 0.00 0.00 0.00 59 1016.2
20260503072305 17 183 1.6 3.2 0.00 0.00 0.00 60 1015.9
20260503071804 17 184 1.6 4.8 0.00 0.00 0.00 61 1015.9
20260503070804 16 145 0.0 3.2 0.00 0.00 0.00 63 1016.0
20260503070303 16 145 0.0 3.2 0.00 0.00 0.00 64 1016.0
20260503060303 13 139 1.6 4.8 0.00 0.00 0.00 74 1016.0
20260503054803 12 127 1.6 3.2 0.00 0.00 0.00 80 1016.0